This demonstration page uses our WeatherBlox Daily Observations layout. Learn more.

Left ArrowRight Arrow

Hourly Observations for January 17, 2017

Temp ( °F °C ) Dew Point ( °F °C ) Humidity (%) Winds ( mph kmh ) Pressure ( in mb ) Visibility ( mi km ) Precip ( " mm )
12:53 am 00:53 Clear 43 6.1 39 3.9 86 86 NNE 10 17 30.03 1017 10 16 0.00 0.00
1:53 am 01:53 Clear 44 6.7 40 4.4 85 85 NNE 10 17 30.03 1017 10 16 0.00 0.00
2:53 am 02:53 Clear 42 5.6 38 3.3 85 85 NNE 9 15 30.03 1017 10 16 0.00 0.00
3:53 am 03:53 Cloudy 41 5 37 2.8 86 86 NNE 8 13 30.04 1017 10 16 0.00 0.00
4:53 am 04:53 Mostly Cloudy 40 4.4 36 2.2 86 86 NNE 10 17 30.05 1018 10 16 0.00 0.00
5:53 am 05:53 Cloudy 40 4.4 36 2.2 86 86 NNE 10 17 30.07 1018 10 16 0.00 0.00
6:53 am 06:53 Cloudy 40 4.4 35 1.7 83 83 NE 15 24 30.08 1019 10 16 0.00 0.00
7:53 am 07:53 Sunny 37 2.8 34 1.1 89 89 N 8 13 30.12 1020 10 16 0.00 0.00
8:53 am 08:53 Sunny 39 3.9 34 1.1 82 82 N 9 15 30.14 1021 10 16 0.00 0.00
9:53 am 09:53 Mostly Cloudy 42 5.6 35 1.7 76 76 NE 10 17 30.16 1021 10 16 0.00 0.00
10:11 am 10:11 Cloudy 43 6.1 35 1.7 74 74 NE 10 17 30.24 1024 10 16 0.00 0.00
10:53 am 10:53 Cloudy 43 6.1 35 1.7 74 74 NE 7 11 30.18 1022 10 16 0.00 0.00
11:53 am 11:53 Cloudy 44 6.7 36 2.2 73 73 NE 6 9 30.15 1021 10 16 0.00 0.00
12:53 pm 12:53 Cloudy 46 7.8 36 2.2 68 68 NE 9 15 30.10 1019 10 16 0.00 0.00
1:53 pm 13:53 Cloudy 46 7.8 36 2.2 68 68 N 6 9 30.06 1018 10 16 0.00 0.00
2:53 pm 14:53 Cloudy 47 8.3 37 2.8 69 69 N 3 6 30.06 1018 10 16 0.00 0.00
3:53 pm 15:53 Cloudy 47 8.3 38 3.3 71 71 E 5 7 30.06 1018 10 16 0.00 0.00
4:53 pm 16:53 Cloudy with Light Rain 47 8.3 39 3.9 74 74 SE 3 6 30.08 1019 10 16 0.00 0.00
5:53 pm 17:53 Cloudy 47 8.3 39 3.9 74 74 SE 6 9 30.07 1018 10 16 0.00 0.00
6:53 pm 18:53 Cloudy 46 7.8 39 3.9 77 77 S 5 7 30.11 1020 10 16 0.00 0.00
7:53 pm 19:53 Cloudy 44 6.7 40 4.4 85 85 SW 6 9 30.13 1020 10 16 0.00 0.00
8:53 pm 20:53 Cloudy 44 6.7 40 4.4 85 85 SW 6 9 30.14 1021 10 16 0.00 0.00
9:53 pm 21:53 Cloudy 44 6.7 41 5 89 89 WSW 7 11 30.16 1021 10 16 0.00 0.00
10:53 pm 22:53 Cloudy 44 6.7 41 5 89 89 WSW 5 7 30.15 1021 10 16 0.00 0.00
11:53 pm 23:53 Cloudy 44 6.7 41 5 89 89 Calm 30.15 1021 10 16 0.00 0.00

Powered by AerisWeather